RYR8976 LBSF-EPKK

Flight info

Callsign RYR8976
Flight time N/A
Altitude 36000
Route OGOTA N133 RESLA DCT LOMOS DCT OVDOT DCT SODGO DCT RUPUG DCT ETNOG DCT KSC DCT KOJOT DCT RAZEC DCT LENOV
Aircraft B38M/M-SDE1FGHILORVWXY/HB1

Departure

Time 2026-05-05 10:21
Airport Sofia Airport (LBSF)

Arrival

Time N/A
Airport Kraków John Paul II International Airport (EPKK)
Time Latitude Longitude Altitude Speed Heading
2026-05-05 09:57 42.69095 23.40276 1755 ft 0 kts 196°
2026-05-05 10:16 42.69094 23.40275 1782 ft 1 kts 196°
2026-05-05 10:16 42.69073 23.40262 1755 ft 6 kts 214°
2026-05-05 10:16 42.69063 23.40184 1751 ft 12 kts 284°
2026-05-05 10:16 42.69090 23.40068 1749 ft 14 kts 287°
2026-05-05 10:17 42.69109 23.39934 1751 ft 15 kts 282°
2026-05-05 10:17 42.69137 23.39784 1749 ft 17 kts 286°
2026-05-05 10:17 42.69171 23.39620 1755 ft 19 kts 284°
2026-05-05 10:17 42.69222 23.39551 1755 ft 10 kts
2026-05-05 10:18 42.69310 23.39563 1745 ft 16 kts
2026-05-05 10:18 42.69432 23.39574 1755 ft 17 kts
2026-05-05 10:18 42.69506 23.39580 1754 ft 0 kts
2026-05-05 10:18 42.69514 23.39580 1751 ft 3 kts
2026-05-05 10:19 42.69570 23.39576 1749 ft 14 kts 358°
2026-05-05 10:19 42.69703 23.39595 1755 ft 24 kts
2026-05-05 10:19 42.69773 23.39644 1752 ft 6 kts 86°
2026-05-05 10:19 42.69772 23.39664 1751 ft 5 kts 96°
2026-05-05 10:20 42.69762 23.39811 1756 ft 51 kts 95°
2026-05-05 10:21 42.70126 23.51890 5937 ft 255 kts 39°
2026-05-05 10:22 42.71763 23.52914 6720 ft 267 kts
2026-05-05 10:22 42.73617 23.52803 7846 ft 269 kts 358°
2026-05-05 10:22 42.75513 23.52725 8796 ft 275 kts 359°
2026-05-05 10:22 42.77441 23.52658 9767 ft 282 kts 359°
2026-05-05 10:23 42.79412 23.52591 10037 ft 283 kts 359°
2026-05-05 10:23 42.81381 23.52525 10058 ft 282 kts 359°
2026-05-05 10:23 42.83316 23.52460 10092 ft 282 kts 359°
2026-05-05 10:23 42.85292 23.52357 10214 ft 286 kts 353°
2026-05-05 10:24 42.87228 23.51557 11008 ft 299 kts 339°
2026-05-05 10:24 42.88532 23.50836 11377 ft 310 kts 339°
2026-05-05 10:24 42.91247 23.49347 12388 ft 321 kts 339°